Weather observations for the past three days for
Bellaire, Antrim County Airport
Imperial (Metric)
Date Time (edt) Wind (mph) Vis. (mi.) Weather Sky Cond. Temperature (ºF) Relative Humidity Wind Chill (°F) Heat Index (°F) Pressure Precipitation (in)
Air Dwpt 6 hour altimeter (in) sea level (mb) 1 hr 3 hr 6 hr
Max. Min.
17 19:35 NW 7 10.00 Mostly Cloudy BKN027 BKN036 64.4 52.2 65% 30.01 0.0
17 19:15 NW 10 G 17 10.00 Partly Cloudy SCT027 SCT036 SCT043 64.6 52.2 64% 30.01 0.0
17 18:55 NW 7 10.00 Mostly Cloudy SCT029 BKN085 66.2 52.7 62% 30 0.0
17 18:35 NW 10 G 16 10.00 Overcast SCT031 OVC085 66 52.3 62% 29.99 0.0
17 18:15 NW 8 10.00 Overcast BKN031 BKN035 OVC085 67.8 52.9 59% 29.99 0.0
17 17:55 W 6 10.00 Mostly Cloudy SCT031 SCT038 BKN085 67.8 53.4 60% 29.98 0.0
17 17:35 W 5 10.00 Partly Cloudy SCT047 SCT070 SCT085 67.3 52.3 59% 29.99 0.0
17 17:15 W 7 G 17 10.00 Partly Cloudy SCT050 SCT075 SCT080 68.2 52.9 58% 29.98 0.0
17 16:55 W 6 10.00 Mostly Cloudy SCT075 BKN085 67.1 53.1 61% 29.98 0.0
17 16:35 W 5 10.00 Mostly Cloudy BKN085 67.1 52 58% 29.98 0.0
17 16:15 NW 8 10.00 Mostly Cloudy SCT034 BKN085 69.1 51.1 53% 29.98 0.0
17 15:55 NW 8 G 16 10.00 Overcast SCT034 SCT041 OVC085 68.5 52.9 58% 29.97 0.0
17 15:35 NW 9 10.00 Overcast SCT034 BKN075 OVC085 68.2 53.4 59% 29.97 0.0
17 15:15 NW 6 G 16 10.00 Mostly Cloudy SCT035 SCT041 BKN060 68.5 52.7 57% 29.96 0.0
17 14:55 W 7 10.00 Mostly Cloudy SCT035 BKN043 70.3 50.9 50% 29.96 0.0
17 14:35 W 12 G 21 10.00 Mostly Cloudy SCT033 BKN041 69.6 50.9 52% 29.95 0.0
17 14:15 W 8 G 16 10.00 Mostly Cloudy BKN031 BKN043 70.3 53.6 56% 29.95 0.0
17 13:55 W 10 G 16 10.00 Mostly Cloudy SCT031 BKN038 BKN046 70 54.5 70.5 63 58% 29.95 0.0
17 13:35 NW 10 G 16 10.00 Mostly Cloudy SCT029 BKN038 70.2 53.8 56% 29.94 0.0
17 13:15 NW 9 G 20 10.00 Partly Cloudy SCT029 SCT038 69.4 52.2 54% 29.94 0.0
17 12:55 NW 8 G 21 10.00 Partly Cloudy SCT029 SCT036 69.8 52.3 54% 29.94 0.0
17 12:35 W 5 10.00 Mostly Cloudy BKN027 BKN033 BKN045 69.4 54.3 59% 29.93 0.0
17 12:15 NW 6 10.00 Mostly Cloudy SCT025 SCT030 BKN039 68.9 54.9 61% 29.93 0.0
17 11:55 NW 9 10.00 Partly Cloudy SCT026 SCT038 SCT044 69.4 55 60% 29.92 0.0
17 11:35 NW 10 G 18 10.00 Partly Cloudy SCT026 SCT031 SCT040 69.4 55.9 62% 29.92 0.0
17 11:15 W 8 10.00 Mostly Cloudy BKN026 BKN040 70.2 56.5 62% 29.91 0.0
17 10:55 W 5 10.00 Mostly Cloudy SCT019 BKN026 69.4 57.4 66% 29.91 0.0
17 10:35 NW 7 10.00 Mostly Cloudy SCT019 BKN024 BKN031 68.5 58.8 71% 29.91 0.0
17 10:15 W 9 10.00 Mostly Cloudy SCT020 SCT030 BKN085 67.8 59 74% 29.91 0.0
17 09:55 W 8 10.00 Partly Cloudy SCT021 SCT027 70.2 56.8 63% 29.9 0.0
17 09:35 W 7 10.00 Mostly Cloudy SCT019 SCT033 BKN100 69.8 59 69% 29.91 0.0
17 09:15 Calm 10.00 Mostly Cloudy SCT019 BKN034 BKN044 67.8 61.5 80% 29.9 0.0
17 08:55 S 3 10.00 Mostly Cloudy SCT047 SCT075 BKN120 67.3 61.7 82% 29.91 0.0
17 08:35 Calm 10.00 Partly Cloudy SCT120 65.8 61.2 85% 29.9 0.0
17 08:15 Calm 10.00 Partly Cloudy SCT050 SCT110 64.2 60.6 88% 29.9 0.0
17 07:55 Calm 7.00 Partly Cloudy SCT110 62.8 59.5 64.9 57 89% 29.89 0.0
17 07:35 Calm 10.00 Partly Cloudy SCT049 61.3 59.2 93% 29.89 0.0
17 07:15 Calm 10.00 Mostly Cloudy BKN049 60.1 58.3 94% 29.89 0.0
17 06:55 Calm 7.00 Partly Cloudy SCT050 58.6 56.8 94% 29.88 0.0
17 06:35 Calm 5.00 Fog/Mist SCT050 58.1 56.5 94% 29.87 0.0
17 06:15 Calm 4.00 Fog/Mist CLR 57 55.2 94% 29.87 0.0
17 05:55 Calm 4.00 Fog/Mist SCT050 58.1 56.3 94% 29.86 0.0
17 05:35 Calm 7.00 Partly Cloudy SCT060 58.5 56.7 94% 29.86 0.0
17 05:15 Calm 5.00 Fog/Mist SCT060 59.4 57.6 94% 29.87 0.0
17 04:55 Calm 7.00 Mostly Cloudy SCT050 BKN060 59.5 57.7 94% 29.86 0.0
17 04:35 Calm 7.00 Mostly Cloudy BKN050 BKN065 59.9 58.1 94% 29.86 0.0
17 04:15 Calm 5.00 Fog/Mist SCT050 59.5 57.6 93% 29.85 0.0
17 03:55 Calm 7.00 Partly Cloudy SCT060 SCT070 61 59.2 94% 29.85 0.0
17 03:35 Calm 7.00 Partly Cloudy SCT048 SCT060 SCT070 61.3 59.2 93% 29.86 0.0
17 03:15 Calm 7.00 Mostly Cloudy SCT048 BKN055 BKN070 62.1 60.1 93% 29.86 0.0
17 02:55 Calm 10.00 Overcast SCT048 BKN055 OVC070 62.8 60.8 93% 29.87 0.0
17 02:35 Calm 10.00 Mostly Cloudy SCT046 SCT055 BKN120 63.5 61 92% 29.87 0.0
17 02:15 Calm 10.00 Mostly Cloudy BKN044 BKN080 BKN120 63.9 61.2 91% 29.87 0.0
17 01:55 Calm 10.00 Overcast OVC042 65.3 61.7 72.7 62.6 88% 29.87 0.0
17 01:35 Calm 10.00 Overcast SCT042 BKN070 OVC095 64.2 61.3 90% 29.87 0.0
17 01:15 Calm 10.00 Overcast SCT042 SCT070 OVC095 63.5 60.8 91% 29.86 0.0
17 00:55 Calm 10.00 Overcast SCT043 SCT070 OVC095 63.7 61 91% 29.86 0.0
17 00:35 Calm 10.00 Overcast BKN043 BKN070 OVC095 63.3 60.1 89% 29.86 0.0
17 00:15 Calm 10.00 Overcast OVC095 64.8 61 88% 29.85 0.0
16 23:55 Calm 10.00 Overcast OVC085 64 60.8 89% 29.84 0.0
16 23:35 Calm 10.00 Overcast OVC085 65.3 60.8 85% 29.84 0.0
16 23:15 Calm 7.00 Overcast SCT050 SCT080 OVC085 65.8 61 84% 29.84 0.0
16 22:55 Calm 10.00 Overcast BKN080 OVC090 65.3 60.8 85% 29.84 0.0
16 22:35 Calm 10.00 Mostly Cloudy BKN085 63.3 60.8 92% 29.83 0.0
16 22:15 Calm 10.00 Mostly Cloudy SCT070 SCT075 BKN110 63 60.3 91% 29.83 0.0
16 21:55 Calm 10.00 Mostly Cloudy SCT070 BKN110 64.4 61.2 89% 29.82 0.0
16 21:35 Calm 10.00 Fair CLR 63.7 60.8 90% 29.82 0.0
16 21:15 Calm 10.00 Fair CLR 66.2 61.3 84% 29.81 0.0
16 20:55 Calm 10.00 Fair CLR 67.6 61.7 81% 29.8 0.0
16 20:35 Calm 10.00 Fair CLR 71.1 59.5 67% 29.8 0.0
16 20:15 Calm 10.00 Fair CLR 72.1 58.6 63% 29.8 0.0
16 19:55 Calm 10.00 Fair CLR 72.7 57.6 75.4 72.7 59% 29.8 0.0
16 19:35 Calm 10.00 Fair CLR 73.6 57 56% 29.8 0.0
16 19:15 Calm 10.00 Fair CLR 73.4 57.2 57% 29.8 0.0
16 18:55 NW 3 10.00 Fair CLR 73.6 56.3 55% 29.8 0.0
16 18:35 W 5 10.00 Fair CLR 74.1 56.5 54% 29.81 0.0
16 18:15 W 3 10.00 Fair CLR 74.3 55.9 53% 29.81 0.0
16 17:55 W 5 10.00 Fair CLR 74.1 55.9 53% 29.81 0.0
16 17:35 Calm 10.00 Fair CLR 75.4 55.8 51% 78 29.81 0.0
16 17:15 W 5 10.00 Fair CLR 74.3 55.6 52% 29.81 0.0
16 16:55 NW 6 10.00 Fair CLR 73.9 55.9 54% 29.8 0.0
16 16:35 W 3 10.00 Fair CLR 74.1 56.7 55% 29.8 0.0
16 16:15 W 8 10.00 Fair CLR 73.6 56.8 56% 29.81 0.0
16 15:55 NW 6 10.00 Fair CLR 74.3 56.8 55% 29.8 0.0
16 15:35 W 8 10.00 Fair CLR 73.4 57 57% 29.79 0.0
16 15:15 NW 7 10.00 Fair CLR 73.4 56.3 55% 29.78 0.0
16 14:55 NW 6 10.00 Fair CLR 72.9 55.6 55% 29.78 0.0
16 14:35 W 7 10.00 Fair CLR 73.6 57.4 57% 29.78 0.0
16 14:15 NW 8 10.00 Fair CLR 73.2 57.2 57% 29.78 0.0
16 13:55 NW 5 10.00 Fair CLR 73.2 58.5 74.3 67.1 60% 29.78 0.0
16 13:35 W 7 10.00 Fair CLR 73.4 59.9 63% 29.77 0.0
16 13:15 W 3 10.00 Partly Cloudy SCT044 73.8 61.2 65% 29.77 0.0
16 12:55 W 5 10.00 Mostly Cloudy SCT032 BKN044 73.4 60.8 65% 29.77 0.0
16 12:35 SW 3 10.00 Overcast SCT025 OVC032 72.5 61.3 68% 29.77 0.0
16 12:15 SW 5 10.00 Mostly Cloudy BKN025 72.9 61.2 67% 29.76 0.0
16 11:55 W 6 10.00 Mostly Cloudy SCT021 BKN025 72.3 61 68% 29.75 0.0
16 11:35 SW 5 10.00 Overcast SCT021 OVC027 70.9 61.5 72% 29.75 0.0
16 11:15 NW 6 10.00 Mostly Cloudy SCT023 BKN029 71.8 60.8 68% 29.75 0.0
16 10:55 N 3 10.00 Mostly Cloudy BKN027 71.6 60.8 69% 29.75 0.0
16 10:35 N 6 10.00 Overcast OVC027 70.3 59.9 70% 29.74 0.0
16 10:15 Calm 10.00 Overcast OVC027 69.8 61.3 75% 29.74 0.0
16 09:55 Calm 10.00 Overcast SCT014 OVC021 68.2 63 84% 29.73 0.0
16 09:35 Calm 10.00 Overcast BKN011 OVC016 67.5 63.5 87% 29.72 0.0
16 09:15 Calm 10.00 Overcast OVC008 67.1 63.5 88% 29.72 0.0
16 08:55 NW 6 10.00 Overcast BKN008 OVC019 68.4 64.9 89% 29.71 0.0
16 08:35 Calm 10.00 Overcast SCT008 OVC017 68.2 64.9 89% 29.71 0.0
16 08:15 Calm 10.00 Overcast SCT010 OVC015 68.4 65.1 89% 29.7 0.0
16 07:55 Calm 10.00 Overcast BKN010 OVC017 68.9 65.7 70.7 68.2 89% 29.69 0.0
16 07:35 Calm 10.00 Overcast BKN010 OVC017 68.9 65.8 90% 29.69 0.0
16 07:15 Calm 10.00 Overcast BKN008 BKN012 OVC017 68.9 66.2 91% 29.68 0.0
16 06:55 Calm 10.00 Overcast OVC008 69.1 66.2 91% 29.68 0.0
16 06:35 Calm 10.00 Overcast OVC008 69.4 66.6 91% 29.67 0.0
16 06:15 Calm 10.00 Overcast OVC008 70 67.1 91% 29.67 0.0
16 05:55 W 5 10.00 Overcast BKN008 OVC014 70.5 67.3 90% 29.67 0.0
16 05:35 SW 3 10.00 Overcast BKN014 OVC060 70.7 67.3 89% 29.67 0.0
16 05:15 SW 3 10.00 Mostly Cloudy SCT018 SCT060 BKN095 69.8 67.5 92% 29.67 0.0
16 04:55 Calm 7.00 Partly Cloudy SCT095 68.5 66.6 93% 29.67 0.0
16 04:35 Calm 5.00 Fog/Mist SCT050 68.4 66.2 93% 29.66 0.0
16 04:15 Calm 10.00 Mostly Cloudy BKN048 BKN070 BKN095 69.6 67.3 92% 29.67 0.0
16 03:55 Calm 10.00 Overcast SCT048 BKN070 OVC085 69.3 67.3 93% 29.67 0.0
16 03:35 Calm 5.00 Fog/Mist BKN080 68.7 66.6 93% 29.67 0.0
16 03:15 Calm 3.00 Fog/Mist CLR 68.4 66.4 93% 29.66 0.0
16 02:55 Calm 5.00 Fog/Mist SCT034 SCT080 69.6 67.5 93% 29.66 0.0
16 02:35 Calm 4.00 Fog/Mist SCT038 SCT080 69.3 67.1 93% 29.66 0.0
16 02:15 Calm 7.00 Partly Cloudy SCT040 69.3 66.7 92% 29.66 0.0
16 01:55 Calm 7.00 Mostly Cloudy BKN040 BKN065 BKN085 70 67.3 83.3 70 91% 29.67 0.0
16 01:35 SE 5 4.00 Light Rain SCT018 BKN042 OVC050 70.3 67.1 90% 29.67 0.0
16 01:15 SW 3 4.00 Heavy Rain SCT017 BKN031 OVC050 70.5 67.3 90% 29.69 0.0
16 00:55 NW 10 G 21 2.00 Heavy Rain SCT011 BKN042 OVC055 72.3 68.5 88% 29.68 0.0
16 00:35 Calm 10.00 Rain SCT041 SCT048 BKN110 73.8 69.8 88% 29.64 0.0
16 00:15 Calm 10.00 Partly Cloudy SCT055 SCT070 SCT095 74.1 69.1 84% 29.65 0.0
15 23:55 Calm 10.00 Mostly Cloudy BKN085 BKN120 73.6 69.3 86% 29.67 0.0
15 23:35 Calm 10.00 Mostly Cloudy BKN085 72.1 68.4 88% 29.67 0.0
15 23:15 Calm 10.00 Fair CLR 71.1 68 90% 29.66 0.0
15 22:55 Calm 10.00 Partly Cloudy SCT025 SCT090 72.5 68 86% 29.65 0.0
15 22:35 Calm 10.00 Partly Cloudy SCT090 71.6 68 88% 29.67 0.0
15 22:15 Calm 10.00 Partly Cloudy SCT031 SCT090 72.9 67.8 84% 29.67 0.0
15 21:55 Calm 10.00 Partly Cloudy SCT090 72 67.6 86% 29.68 0.0
15 21:35 Calm 10.00 Partly Cloudy SCT090 72.7 67.5 84% 29.67 0.0
15 21:15 Calm 10.00 Partly Cloudy SCT095 73.2 67.3 82% 29.68 0.0
15 20:55 Calm 10.00 Partly Cloudy SCT095 74.3 68.2 81% 29.69 0.0
15 20:35 Calm 10.00 Fair CLR 75.7 66.9 74% 77 29.68 0.0
15 20:15 Calm 10.00 Fair CLR 82 63.5 54% 83 29.67 0.0
15 19:55 Calm 10.00 Fair CLR 83.3 63 85.6 83.3 50% 84 29.68 0.0
15 19:35 Calm 10.00 Fair CLR 83.5 62.4 49% 84 29.69 0.0
15 19:15 Calm 10.00 Fair CLR 83.3 63 50% 84 29.7 0.0
15 18:55 Calm 10.00 Fair CLR 84.2 62.1 47% 85 29.71 0.0
15 18:35 W 3 10.00 Fair CLR 84.6 61.5 46% 85 29.72 0.0
15 18:15 Calm 10.00 Fair CLR 84.7 62.2 47% 85 29.72 0.0
15 17:55 NW 3 10.00 Fair CLR 84.9 62.2 47% 86 29.73 0.0
15 17:35 W 5 10.00 Fair CLR 84.7 61.7 46% 85 29.74 0.0
15 17:15 W 6 10.00 Fair CLR 84.9 60.1 43% 85 29.75 0.0
15 16:55 W 6 10.00 Fair CLR 84.9 61.3 45% 85 29.75 0.0
15 16:35 NW 5 10.00 Fair CLR 84.2 61.3 46% 85 29.75 0.0
15 16:15 W 5 10.00 Fair CLR 84.2 61.2 46% 85 29.76 0.0
15 15:55 W 5 10.00 Fair CLR 84 62.8 49% 85 29.77 0.0
15 15:35 NW 7 10.00 Fair CLR 85.1 62.6 47% 86 29.77 0.0
15 15:15 W 5 10.00 Fair CLR 84 61.2 46% 84 29.78 0.0
15 14:55 NW 7 10.00 Fair CLR 84.9 62.8 48% 86 29.78 0.0
15 14:35 SW 6 10.00 Fair CLR 84.6 62.8 48% 85 29.79 0.0
15 14:15 W 8 10.00 Fair CLR 84.4 62.1 47% 85 29.79 0.0
15 13:55 W 7 10.00 Fair CLR 84.2 63.3 84.4 71.6 50% 85 29.8 0.0
15 13:35 W 7 10.00 Fair CLR 84.2 64.2 51% 86 29.8 0.0
15 13:15 SW 6 10.00 Fair CLR 82.9 65.1 55% 85 29.8 0.0
15 12:55 W 7 10.00 Fair CLR 82.4 66 58% 85 29.8 0.0
15 12:35 SW 6 10.00 Fair CLR 81.7 66.9 61% 84 29.81 0.0
15 12:15 SW 6 10.00 Partly Cloudy SCT021 81.3 67.1 62% 84 29.8 0.0
15 11:55 W 5 10.00 Mostly Cloudy BKN021 80.2 67.5 65% 83 29.8 0.0
15 11:35 SW 3 10.00 Mostly Cloudy BKN019 79.3 67.5 67% 82 29.8 0.0
15 11:15 SW 5 10.00 Mostly Cloudy BKN019 77.7 66.9 69% 80 29.81 0.0
15 10:55 S 3 10.00 Overcast OVC019 77.5 67.1 70% 79 29.81 0.0
15 10:35 S 6 10.00 Overcast BKN016 OVC023 76.1 67.5 75% 78 29.82 0.0
15 10:15 SW 5 10.00 Overcast BKN014 OVC022 75.7 67.6 76% 77 29.82 0.0
15 09:55 S 7 10.00 Overcast OVC012 76.1 68.2 77% 77 29.82 0.0
15 09:35 S 6 10.00 Overcast OVC012 74.3 67.8 80% 29.82 0.0
15 09:15 S 6 10.00 Overcast OVC010 73.8 67.6 81% 29.82 0.0
15 08:55 S 7 10.00 Overcast OVC010 73.8 68 82% 29.82 0.0
15 08:35 SW 5 10.00 Mostly Cloudy BKN010 BKN014 74.1 68 81% 29.81 0.0
15 08:15 S 5 10.00 Fair CLR 73 68 84% 29.81 0.0
15 07:35 Calm 10.00 Fair CLR 67.1 65.1 93% 29.81 0.0
15 07:15 Calm 7.00 Fair CLR 66.4 64.4 93% 29.81 0.0
15 06:55 Calm 5.00 Fog/Mist CLR 65.7 63.5 93% 29.8 0.0
15 06:35 Calm 7.00 Fair CLR 66.2 64 93% 29.8 0.0
15 06:15 Calm 7.00 Fair CLR 66.7 64.4 92% 29.8 0.0
15 05:55 Calm 7.00 Fair CLR 66.9 64.6 92% 29.8 0.0
15 05:35 Calm 10.00 Fair CLR 67.1 64.8 92% 29.8 0.0
15 05:15 Calm 10.00 Fair CLR 67.1 64.8 92% 29.79 0.0
15 04:55 Calm 10.00 Partly Cloudy SCT035 SCT046 SCT065 67.1 64.8 92% 29.79 0.0
15 04:35 Calm 10.00 Overcast BKN035 BKN049 OVC080 67.3 65.3 93% 29.79 0.0
15 04:15 Calm 10.00 Mostly Cloudy SCT033 SCT040 BKN049 66.7 64.6 93% 29.8 0.0
15 03:55 Calm 7.00 Fair CLR 66.4 64 92% 29.79 0.0
15 03:35 Calm 10.00 Fair CLR 66.9 64.2 91% 29.78 0.0
15 03:15 Calm 10.00 Fair CLR 67.8 65.1 91% 29.8 0.0
15 02:55 Calm 10.00 Partly Cloudy SCT050 67.3 64.9 92% 29.8 0.0
15 02:35 NE 3 10.00 Fair CLR 66.9 64.4 92% 29.8 0.0
15 02:15 Calm 10.00 Fair CLR 68.4 64.9 89% 29.8 0.0
15 01:55 Calm 10.00 Fair CLR 67.5 64.9 82.9 67.3 92% 29.81 0.0
15 01:35 Calm 10.00 Fair CLR 68.9 65.3 88% 29.81 0.0
15 01:15 Calm 10.00 Fair CLR 68 65.3 91% 29.81 0.0
15 00:55 Calm 10.00 Fair CLR 69.1 65.5 88% 29.81 0.0
15 00:35 S 3 10.00 Fair CLR 71.4 66.6 85% 29.8 0.0
15 00:15 Calm 10.00 Fair CLR 69.3 66.2 90% 29.82 0.0
14 23:55 Calm 10.00 Fair CLR 69.1 66.4 91% 29.83 0.0
14 23:35 Calm 10.00 Fair CLR 68 65.5 92% 29.83 0.0
14 23:15 Calm 10.00 Fair CLR 69.1 66 90% 29.83 0.0
14 22:55 Calm 10.00 Fair CLR 69.1 66 90% 29.84 0.0
14 22:35 Calm 10.00 Fair CLR 70 66.6 89% 29.83 0.0
14 22:15 Calm 10.00 Fair CLR 72.5 66.9 83% 29.83 0.0
14 21:55 Calm 10.00 Fair CLR 71.4 67.5 87% 29.83 0.0
14 21:35 Calm 10.00 Fair CLR 72.7 67.6 84% 29.82 0.0
14 21:15 Calm 10.00 Fair CLR 73.2 67.5 82% 29.83 0.0
14 20:55 Calm 10.00 Fair CLR 78.1 67.1 69% 80 29.83 0.0
14 20:35 Calm 10.00 Fair CLR 80.6 66 61% 83 29.83 0.0
14 20:15 Calm 10.00 Fair CLR 81.5 66.2 60% 84 29.84 0.0
14 19:55 W 3 10.00 Fair CLR 82.9 64.6 85.5 80.6 54% 85 29.83 0.0
Date Time (edt) Wind (mph) Vis. (mi.) Weather Sky Cond. Air Dwpt Max. Min. Relative Humidity Wind Chill (°F) Heat Index (°F) altimeter (in) sea level (mb) 1 hr 3 hr 6 hr
6 hour
Temperature (ºF) Pressure Precipitation (in)